Weather History for PANT - November, 2012

Change the Weather History Date:

Wednesday, November 7, 2012

  Actual Average Record
Temperature  
Mean Temperature 40 °F 41 °F  
Max Temperature 44 °F 46 °F 60 °F (2002)
Min Temperature 36 °F 37 °F 19 °F (1973)
Degree Days  
Heating Degree Days 25 24  
Month to date heating degree days 148 161  
Since 1 July heating degree days 1576 1461  
Cooling Degree Days 0    
Month to date cooling degree days 0  
Year to date cooling degree days 7  
Moisture  
Dew Point 37 °F    
Average Humidity 0    
Maximum Humidity 0    
Minimum Humidity 0    
Precipitation  
Precipitation 0.06 in 0.43 in 3.79 in (1959)
Month to date precipitation 4.67 3.20  
Year to date precipitation 87.29 81.82  
Snow  
Snow 0.00 in 0.10 in 2.00 in (1996)
Month to date snowfall 0.0 0.5  
Since 1 July snowfall T 0.6  
Since 1 September snowfall 0.0 0.6  
Snow Depth 0.00 in    
Sea Level Pressure  
Sea Level Pressure 30.05 in    
Wind  
Wind Speed 3 mph (East)    
Max Wind Speed 8 mph    
Max Gust Speed 10 mph    
Visibility 10 miles    
Events Rain    
T = Trace of Precipitation, MM = Missing Value Source: NWS Daily Summary

Daily Weather History Graph

Daily Weather History Graph

Search for Another Location

Airport or City:

Trip Planner

Search our weather history database for the weather conditions in past years. The results will help you decide how hot, cold, wet, or windy it might be!

Date:

Astronomy

Nov. 07, 2012 Rise Set
Actual Time 7:03 AM AKST 3:55 PM AKST
Civil Twilight 6:24 AM AKST 4:35 PM AKST
Nautical Twilight 5:40 AM AKST 5:18 PM AKST
Astronomical Twilight 4:58 AM AKST 6:01 PM AKST
Moon No Moon Rise 1:08 PM AKST (11/7)
Length of Visible Light 10h 11m
Length of Day
8h 51m
Last Quarter, 41% of the Moon is Illuminated
Nov 7
Last Quarter
Nov 13
New
Nov 20
First Quarter
Nov 28
Full
Dec 6
Last Quarter

Hourly Weather History & Observations

Time (AKST) Temp. Windchill Dew Point Humidity Pressure Visibility Wind Dir Wind Speed Gust Speed Precip Events Conditions
12:39 AM 41.0 °F 38.0 °F 39.2 °F 93% 29.86 in 10.0 mi ESE 4.6 mph - N/A   Overcast
12:53 AM 41.0 °F 39.0 °F 39.0 °F 93% 29.87 in 10.0 mi SE 3.5 mph - N/A   Overcast
1:07 AM 41.0 °F 38.0 °F 39.2 °F 93% 29.87 in 10.0 mi ESE 4.6 mph - N/A   Overcast
1:53 AM 41.0 °F - 39.0 °F 93% 29.89 in 10.0 mi Calm Calm - N/A   Overcast
2:53 AM 37.9 °F - 37.0 °F 97% 29.90 in 10.0 mi Calm Calm - N/A   Mostly Cloudy
3:53 AM 39.0 °F - 37.9 °F 96% 29.91 in 10.0 mi Calm Calm - 0.00 in   Overcast
4:53 AM 36.0 °F - 35.1 °F 97% 29.93 in 10.0 mi Calm Calm - N/A   Partly Cloudy
5:53 AM 37.9 °F - 37.0 °F 97% 29.95 in 10.0 mi Calm Calm - N/A   Overcast
6:53 AM 37.9 °F - 37.0 °F 97% 29.96 in 10.0 mi Calm Calm - N/A   Overcast
7:53 AM 36.0 °F - 35.1 °F 97% 29.99 in 5.0 mi Calm Calm - N/A   Scattered Clouds
8:53 AM 39.9 °F - 37.9 °F 93% 30.01 in 10.0 mi Calm Calm - N/A   Mostly Cloudy
9:53 AM 44.1 °F - 39.0 °F 82% 30.03 in 10.0 mi Calm Calm - N/A   Mostly Cloudy
10:53 AM 42.1 °F 38.4 °F 37.9 °F 85% 30.05 in 10.0 mi ESE 5.8 mph - N/A   Mostly Cloudy
11:00 AM 42.8 °F 39.3 °F 37.4 °F 81% 30.04 in 10.0 mi ESE 5.8 mph - N/A   Overcast
11:53 AM 41.0 °F 39.0 °F 37.9 °F 89% 30.06 in 10.0 mi ESE 3.5 mph - N/A   Scattered Clouds
12:53 PM 43.0 °F 38.8 °F 37.0 °F 80% 30.08 in 10.0 mi SE 6.9 mph - N/A   Mostly Cloudy
1:00 PM 42.8 °F 38.6 °F 37.4 °F 81% 30.07 in 10.0 mi SE 6.9 mph - N/A   Mostly Cloudy
1:45 PM 42.8 °F 40.1 °F 37.4 °F 81% 30.08 in 10.0 mi SSE 4.6 mph - N/A   Overcast
1:53 PM 42.1 °F 40.2 °F 37.0 °F 82% 30.09 in 10.0 mi SSE 3.5 mph - N/A   Overcast
2:14 PM 42.8 °F - 37.4 °F 81% 30.09 in 3.0 mi Calm Calm - 0.02 in Rain Rain
2:53 PM 43.0 °F - 37.9 °F 82% 30.11 in 10.0 mi Calm Calm - 0.06 in   Mostly Cloudy
3:00 PM 42.8 °F - 39.2 °F 87% 30.10 in 10.0 mi Calm Calm - N/A   Partly Cloudy
3:53 PM 37.9 °F - 37.0 °F 97% 30.12 in 10.0 mi Calm Calm - N/A   Mostly Cloudy
4:53 PM 36.0 °F 33.3 °F 34.0 °F 93% 30.13 in 10.0 mi North 3.5 mph - N/A   Clear
5:53 PM 34.0 °F - 32.0 °F 92% 30.14 in 10.0 mi Calm Calm - N/A   Clear
6:53 PM 33.1 °F - 30.9 °F 92% 30.15 in 10.0 mi Calm Calm - N/A   Clear
7:53 PM 35.1 °F 31.0 °F 33.1 °F 92% 30.17 in 10.0 mi NNW 4.6 mph - N/A   Clear
8:53 PM 36.0 °F 33.3 °F 35.1 °F 97% 30.18 in 10.0 mi NNW 3.5 mph - N/A   Clear
9:53 PM 37.0 °F 32.4 °F 35.1 °F 93% 30.19 in 10.0 mi NNW 5.8 mph - N/A   Clear
10:53 PM 37.0 °F 31.6 °F 35.1 °F 93% 30.19 in 10.0 mi NNW 6.9 mph - N/A   Clear
11:53 PM 36.0 °F 33.3 °F 34.0 °F 93% 30.20 in 10.0 mi NNW 3.5 mph - N/A   Clear